This demonstration page uses our WeatherBlox Daily Observations layout. Learn more.

Left ArrowRight Arrow

31.31129, -92.44514

Hourly Observations for July 27, 2022

Temp ( °F °C ) Dew Point ( °F °C ) Humidity (%) Winds ( mph kmh ) Pressure ( in mb ) Visibility ( mi km ) Precip ( " mm )
12:53 am 00:53 Clear 79 26.1 75 23.9 88 88 SSE 7 11 30.01 1016 10 16 0.00 0.00
1:53 am 01:53 Clear 78 25.6 75 23.9 90 90 SSE 7 11 30.01 1016 10 16 0.00 0.00
2:53 am 02:53 Clear 78 25.6 75 23.9 90 90 SSE 5 7 30.01 1016 10 16 0.00 0.00
3:53 am 03:53 Clear 77 25 74 23.3 90 90 SSE 7 11 30.01 1016 9 14 0.00 0.00
4:53 am 04:53 Clear 77 25 74 23.3 90 90 SSE 6 9 30.01 1016 9 14 0.00 0.00
5:53 am 05:53 Clear 76 24.4 73 22.8 91 91 Calm 30.01 1016 8 13 0.00 0.00
6:53 am 06:53 Sunny 77 25 74 23.3 90 90 Calm 30.02 1017 8 13 0.00 0.00
7:53 am 07:53 Sunny 79 26.1 75 23.9 88 88 SSE 5 7 30.03 1017 10 16 0.00 0.00
8:53 am 08:53 Sunny 83 28.3 76 24.4 79 79 SSE 6 9 30.05 1018 10 16 0.00 0.00
9:53 am 09:53 Mostly Sunny 88 31.1 76 24.4 68 68 SSE 7 11 30.06 1018 10 16 0.00 0.00
10:53 am 10:53 Partly Cloudy 90 32.2 75 23.9 62 62 VRB 5 7 30.05 1018 10 16 0.00 0.00
11:53 am 11:53 Sunny 91 32.8 74 23.3 57 57 SSW 3 6 30.04 1017 10 16 0.00 0.00
12:53 pm 12:53 Mostly Sunny 92 33.3 73 22.8 54 54 SSE 10 17 30.02 1017 10 16 0.00 0.00
1:36 pm 13:36 Cloudy with Nearby Thunderstorms 90 32.2 73 22.8 58 58 SSW 3 6 30.00 1016 9 14 0.00 0.00
1:53 pm 13:53 Cloudy 86 30 75 23.9 70 70 SW 15 24 30.01 1016 10 16 0.00 0.00
2:02 pm 14:02 Cloudy with Nearby Thunderstorms 83 28.3 75 23.9 77 77 SW 17 28 30.01 1016 4 6 0.04 1.02
2:10 pm 14:10 Cloudy with Nearby Thunderstorms 83 28.3 75 23.9 77 77 WSW 12 19 30.01 1016 2 3 0.07 1.78
2:18 pm 14:18 Cloudy with Nearby Thunderstorms 83 28.3 75 23.9 77 77 WSW 9 15 30.01 1016 10 16 0.07 1.78
2:53 pm 14:53 Sunny with Nearby Thunderstorms 89 31.7 77 25 68 68 WSW 12 19 30.01 1016 10 16 0.07 1.78
3:03 pm 15:03 Sunny 89 31.7 77 25 68 68 WSW 9 15 29.99 1016 10 16 0.00 0.00
3:53 pm 15:53 Sunny 89 31.7 75 23.9 63 63 WSW 6 9 30.00 1016 10 16 0.00 0.00
4:53 pm 16:53 Mostly Sunny 91 32.8 75 23.9 59 59 S 10 17 29.98 1015 10 16 0.00 0.00
5:53 pm 17:53 Sunny 88 31.1 74 23.3 63 63 S 7 11 29.98 1015 10 16 0.00 0.00
6:53 pm 18:53 Sunny 87 30.6 75 23.9 67 67 SSE 10 17 29.98 1015 10 16 0.00 0.00
7:53 pm 19:53 Sunny 84 28.9 77 25 80 80 SSE 10 17 29.98 1015 10 16 0.00 0.00
8:53 pm 20:53 Clear 82 27.8 74 23.3 77 77 S 7 11 29.97 1015 10 16 0.00 0.00
9:53 pm 21:53 Clear 80 26.7 74 23.3 82 82 SSE 7 11 29.99 1016 10 16 0.00 0.00
10:53 pm 22:53 Clear 79 26.1 75 23.9 88 88 S 5 7 30.01 1016 10 16 0.00 0.00
11:53 pm 23:53 Clear 79 26.1 74 23.3 85 85 SE 3 6 30.01 1016 10 16 0.00 0.00

Powered by AerisWeather